Location: Tamazert
(32.6352°N, 5.2072°W)
Time: 15:55:30
(UTC+00:00)

Cosmos 1943 - Pass Details

Date: 22 May 2022
Orbit: 834 x 849 km, 71.0° (Epoch: 06 July)

Event Time Altitude Azimuth Distance (km) Brightness Sun altitude
Exits shadow 03:47:47 19° 193° (SSW) 1,885 4.6 -17.0°
Maximum altitude 03:51:52 80° 109° (ESE) 865 3.3 -16.3°
Drops below altitude 10° 03:57:34 10° 23° (NNE) 2,475 6.6 -15.4°
Sets 04:00:01 0° 22° (NNE) 3,413 7.4 -14.9°
